OPS 4682 DEB, 38406

Orbit data source: Space-Track

OPS 4682 DEB, 38406 is space debris in LEO originally from a launch on Sat, 03 Apr 1965 UTC launched from the Air Force Western Test Range (AFWTR). Debris objects in space refer to the collection of defunct objects orbiting the Earth. Examples of debris include non-operational satellites, rocket bodies, and fragments generated from explosions, collisions, or faulty payload assembly.

Loading next visibility...
Identifier
38406, 1965-027DK
Orbit
LEO
Country
Flag of USUS
Related business
Manufacturer
Unknown
Mission
Spacecraft
Bus & Motor
Unknown
Mass
Unknown
Launch date (UTC)
1965-04-03 (61 years ago)
Launch vehicle
Unknown
Launch site
Air Force Western Test Range (AFWTR)
Object type
Payload
Rocket body
Debris
Shape & HBR
Unknown shape, 0.1 m
Radar Cross Section
Medium (>0.1 m² and <1 m²)

Expand to show TLE details & history
Last TLE update: 1 day ago

TLE from 1 day ago
0 OPS 4682 DEB
1 38406U 65027DK  26253.56814888  .00000462  00000-0  15017-2 0  9995
2 38406  90.2519  13.0823 0024397  28.7156 331.5304 13.00350942566362
Epoch: 2026-09-10T13:38Z
TLE epoch observation values (Epoch: 2026-09-10T13:38:08.063Z)
Latitude
0.00001°
Longitude
178.94471°
Altitude
1,247.221 km
Speed
7.239 km/s
True Right ascension
00h 52m 19s
True Declination
0° 00' 00"
Sunlit
Object was in full shadow at epoch
Visualization orbit readout
Latitude
Unknown
Longitude
Unknown
Altitude
Unknown
Speed
Unknown
Apparent Right ascension
Unknown
Apparent Declination
Unknown
Sunlit
N/A
Visualization observer readout
Local Sidereal Time
14:28:32
Azimuth
Unknown
Elevation
Unknown
Doppler factor
Unknown
Orbital elements
Apogee altitude
1,276.468 km
Perigee altitude
1,239.209 km
Semi-major axis
7,635.975 km
Eccentricity
0.00244
Inclination
90.2519°
RAAN
13.0823°
Arg. of periapsis
28.7156°
True anomaly
331.39677°
Mean anomaly
331.5304°
Eccentric anomaly
331.46362°
Mean motion
3.25272 °/min
Orbital period
110.68 mins
BSTAR
0.0015017
Loading maneuver chart data...
Computing Atmospheric mass density...
Loading historical data...
Loading historical data...
Loading historical data...
Loading historical data...
Loading historical data...
Loading historical data...
Loading historical data...

Documentation

Showing up to 5 results
|